SERIAL,TIME,MODEL,SN(OPTODE),OXYGEN,SATURATION,TEMPERATURE,CALPHASE,TCPHASE,C1RPH,C2RPH,C1AMP,C2AMP,RAWTEMP,CHECK
1,1314823184,4330,354,200.2660980224609400,61.1734504699707000,13.1909198760986330,34.4783706665039060,36.7782096862793000,39.7427482604980500,2.9645459651947020,696.7335205078125000,733.3919067382812000,222.8040924072265600,35776
1,1314826772,4330,354,199.8822021484375000,61.0274505615234400,13.1698198318481450,34.5125007629394500,36.8114509582519500,39.7580909729003900,2.9466319084167480,697.4022827148438000,733.5093994140625000,223.5104064941406200,21385
1,1314830372,4330,354,200.0272064208984400,61.0686988830566400,13.1675901412963870,34.5048294067382800,36.8039894104003900,39.7479591369628900,2.9439699649810790,697.2318725585938000,733.5496215820312000,223.5852966308593800,48420
1,1314833972,4330,354,199.2792968750000000,60.8422508239746100,13.1690101623535160,34.5492286682128900,36.8472290039062500,39.7807502746582000,2.9335169792175293,698.4124755859375000,733.5739135742188000,223.5375976562500000,22889
1,1314837572,4330,354,199.7915039062500000,61.0098190307617200,13.1772098541259770,34.5142784118652340,36.8131904602050800,39.7434196472168000,2.9302370548248290,697.6088867187500000,733.6436767578125000,223.2630004882812500,20094
1,1314841172,4330,354,199.1672058105468800,60.8028488159179700,13.1651802062988280,34.5580787658691400,36.8558502197265600,39.7837791442871100,2.9279329776763916,698.6359252929688000,733.6118164062500000,223.6658935546875000,29411
1,1314844772,4330,354,198.5605926513672000,60.6180496215820300,13.1654596328735350,34.5950813293457000,36.8918914794921900,39.8214988708496100,2.9296109676361084,699.4428710937500000,733.5927734375000000,223.6564025878906200,24794
1,1314848372,4330,354,200.6835937500000000,61.2899093627929700,13.1828298568725590,34.4575386047363300,36.7579193115234400,39.6877899169921900,2.9298710823059080,696.1049804687500000,733.6132202148438000,223.0749053955078000,54910
1,1314851972,4330,354,198.9250030517578000,60.7594909667968750,13.1877298355102540,34.5611991882324200,36.8588905334472660,39.7822990417480500,2.9234158992767334,698.6801147460938000,733.6555786132812000,222.9107971191406200,63826
1,1314855572,4330,354,197.5688018798828000,60.3458099365234400,13.1881799697875980,34.6439399719238300,36.9394912719726560,39.8636283874511700,2.9241409301757812,700.8203125000000000,733.6652221679688000,222.8955993652343800,58199
1,1314859172,4330,354,199.3648986816406200,60.8855895996093750,13.1816902160644530,34.5376701354980500,36.8359718322753900,39.7577514648437500,2.9217829704284670,698.0125122070312000,733.5560913085938000,223.1132049560547000,60513
1,1314862772,4330,354,198.2366027832031200,60.5408287048339840,13.1815500259399410,34.6065406799316400,36.9030494689941400,39.8202209472656250,2.9171679019927980,699.6840820312500000,733.5305786132812000,223.1177062988281200,49073
1,1314866372,4330,354,199.1605072021484400,60.8230400085449200,13.1815700531005860,34.5499305725097660,36.8479118347168000,39.7708282470703100,2.9229199886322020,698.2379150390625000,733.5842285156250000,223.1170043945312500,50605
1,1314869972,4330,354,199.7619934082031200,61.0083885192871100,13.1827898025512700,34.5134086608886700,36.8123397827148440,39.7349090576171900,2.9225690364837646,697.3312988281250000,733.4122924804688000,223.0760955810547000,33607
1,1314873572,4330,354,199.1051940917968800,60.8105010986328100,13.1847696304321290,34.5518684387207000,36.8498001098632800,39.7722282409668000,2.9224319458007812,698.2119750976562000,733.4462280273438000,223.0099029541015600,28516
1,1314877172,4330,354,197.1331024169922000,60.2078208923339840,13.1845197677612300,34.6724815368652340,36.9672889709472660,39.8837013244628900,2.9164121150970460,701.1627807617188000,733.4074096679688000,223.0182037353515600,8554
1,1314880772,4330,354,196.7767944335937500,60.0966491699218750,13.1827802658081050,34.6955909729003900,36.9897994995117200,39.9117317199707000,2.9219279289245605,701.7144775390625000,733.4132080078125000,223.0767059326172000,12145
1,1314884372,4330,354,197.2359008789062500,60.2342987060546900,13.1808595657348630,34.6682395935058600,36.9631614685058600,39.8849487304687500,2.9217910766601562,701.0584716796875000,733.4647216796875000,223.1408996582031200,59517
1,1314887972,4330,354,199.2086029052734400,60.8425903320312500,13.1851396560668950,34.5452499389648440,36.8433494567871100,39.7620086669921900,2.9186549186706543,697.9927978515625000,733.4102172851562000,222.9976043701172000,42998
1,1314891572,4330,354,199.1791992187500000,60.8421783447265600,13.1914701461792000,34.5444297790527340,36.8425598144531250,39.7574615478515600,2.9149019718170166,697.9719238281250000,733.3031005859375000,222.7855072021484400,41837
1,1314895172,4330,354,197.1336059570312500,60.2237892150878900,13.1962699890136720,34.6664314270019500,36.9613990783691400,39.8794898986816400,2.9180910587310790,700.8270263671875000,733.2758178710938000,222.6246948242187500,56721
1,1314898772,4330,354,196.5731048583984400,60.0444984436035160,13.1902799606323240,34.7045402526855500,36.9985198974609400,39.9163093566894500,2.9177858829498290,701.8380126953125000,733.2429199218750000,222.8253936767578000,25134
1,1314902372,4330,354,197.8406982421875000,60.4190711975097660,13.1808996200561520,34.6312599182128900,36.9271316528320300,39.8411712646484400,2.9140400886535645,700.0255737304688000,733.2294921875000000,223.1394042968750000,11003
1,1314905972,4330,354,197.6287994384765600,60.3421707153320300,13.1718397140502930,34.6487617492675800,36.9441795349121100,39.8627510070800800,2.9185640811920166,700.4581909179688000,733.3776855468750000,223.4427032470703000,56432
1,1314909572,4330,354,196.0930023193359400,59.8688697814941400,13.1685695648193360,34.7449798583984400,37.0379104614257800,39.9532890319824200,2.9153819084167480,702.7783203125000000,733.3599853515625000,223.5522003173828000,57002
1,1314913172,4330,354,197.5653991699218800,60.3189392089843750,13.1689701080322270,34.6536102294921900,36.9489097595214840,39.8618888854980500,2.9129869937896730,700.5692138671875000,733.3978881835938000,223.5390014648437500,27414
1,1314916772,4330,354,198.2355041503906200,60.5229415893554700,13.1685600280761720,34.6129188537597660,36.9092597961425800,39.8220710754394500,2.9128038883209230,699.5349731445312000,733.3883056640625000,223.5527038574218800,38599
1,1314920372,4330,354,199.1743927001953000,60.8115501403808600,13.1699895858764650,34.5555000305175800,36.8533401489257800,39.7666587829589840,2.9133219718933105,698.0748291015625000,733.3154907226562000,223.5046997070312500,29236
1,1314923972,4330,354,199.0977935791015600,60.7891693115234400,13.1707000732421880,34.5595092773437500,36.8572387695312500,39.7742881774902340,2.9170529842376710,698.1845703125000000,733.2913208007812000,223.4808959960937500,13989
1,1314927572,4330,354,199.4566040039062500,60.8998413085937500,13.1715402603149410,34.5375785827636700,36.8358802795410160,39.7486114501953100,2.9127271175384520,697.6353149414062000,733.3109130859375000,223.4528045654297000,2592
1,1314931172,4330,354,197.4131927490234400,60.2781295776367200,13.1731996536254880,34.6614494323730500,36.9565391540527340,39.8702697753906250,2.9137270450592040,700.6090698242188000,733.1281127929688000,223.3972930908203000,19904
1,1314934772,4330,354,199.5731048583984400,60.9425697326660160,13.1768302917480470,34.5278701782226560,36.8264198303222660,39.7416992187500000,2.9152760505676270,697.2681274414062000,733.1099243164062000,223.2756958007812500,36971
1,1314938372,4330,354,197.1616058349609400,60.2086906433105500,13.1786899566650390,34.6736106872558600,36.9683799743652340,39.8779907226562500,2.9096069335937500,700.8856811523438000,733.1649169921875000,223.2133941650390600,35628
1,1314941972,4330,354,196.7492980957031200,60.0816612243652340,13.1778497695922850,34.6995391845703100,36.9936408996582000,39.9094200134277340,2.9157791137695312,701.5137939453125000,733.1818237304688000,223.2416992187500000,9406
1,1314945572,4330,354,198.0782928466797000,60.4893989562988300,13.1792602539062500,34.6174507141113300,36.9136886596679700,39.8265686035156250,2.9128799438476562,699.4404296875000000,733.1409301757812000,223.1943054199218800,48341
1,1314949172,4330,354,198.5525054931640600,60.6399917602539060,13.1835298538208000,34.5865211486816400,36.8835601806640600,39.7924499511718750,2.9088900089263916,698.7041015625000000,733.0797729492188000,223.0513000488281200,53991
1,1314952772,4330,354,198.3800964355468800,60.6096611022949200,13.2000503540039060,34.5881996154785160,36.8851890563964840,39.7973213195800800,2.9121251106262207,698.7852172851562000,732.9458007812500000,222.4983062744140600,16978
1,1314956372,4330,354,196.3735046386718800,59.9957885742187500,13.1994400024414060,34.7116508483886700,37.0054512023925800,39.9196815490722660,2.9142301082611084,701.7619018554688000,732.8900146484375000,222.5187988281250000,18847
1,1314959972,4330,354,196.8890075683593800,60.1461296081543000,13.1940803527832030,34.6827316284179700,36.9772682189941400,39.8850288391113300,2.9077529907226562,700.9509277343750000,732.9556274414062000,222.6981048583984400,61814
1,1314963572,4330,354,199.0738983154297000,60.7831192016601560,13.1716203689575200,34.5607414245605500,36.8584403991699200,39.7746582031250000,2.9162139892578125,697.9835205078125000,733.0139160156250000,223.4503021240234400,19602
1,1314967172,4330,354,198.0256958007812500,60.4539489746093750,13.1648998260498050,34.6276092529296900,36.9235801696777340,39.8300781250000000,2.9065020084381104,699.6204223632812000,733.0872802734375000,223.6753997802734400,43453
1,1314970772,4330,354,196.5787963867187500,60.0109405517578100,13.1639099121093750,34.7167205810546900,37.0103797912597660,39.9163208007812500,2.9059369564056396,701.8148193359375000,733.1140136718750000,223.7086029052734400,12144
1,1314974372,4330,354,200.2718963623047000,61.1476287841796900,13.1707201004028320,34.4886093139648440,36.7881813049316400,39.6950111389160160,2.9068300724029540,696.1400756835938000,733.0131225585938000,223.4801940917968800,10640
1,1314977972,4330,354,199.7397003173828000,60.9986915588378900,13.1806602478027340,34.5155906677246100,36.8144683837890600,39.7276496887207000,2.9131770133972170,696.8828125000000000,732.9647827148438000,223.1473999023437500,26512
1,1314981572,4330,354,199.0502929687500000,60.7916107177734400,13.1832199096679690,34.5561790466308600,36.8540000915527340,39.7669982910156250,2.9130020141601562,697.7764282226562000,732.8989257812500000,223.0615997314453000,12555
1,1314985172,4330,354,198.2409973144531200,60.5474090576171900,13.1853904724121100,34.6044502258300800,36.9010200500488300,39.8136901855468750,2.9126660823822020,698.8635253906250000,732.7427978515625000,222.9893035888672000,1121
1,1314988772,4330,354,195.6589050292968800,59.7589988708496100,13.1855897903442380,34.7635383605957000,37.0559806823730500,39.9726600646972660,2.9166719913482666,702.8206176757812000,732.8640747070312000,222.9826049804687500,10391
1,1314992372,4330,354,198.0861053466797000,60.4992408752441400,13.1847896575927730,34.6139984130859400,36.9103202819824200,39.8214912414550800,2.9111630916595460,699.1359252929688000,732.7824096679688000,223.0092010498047000,34218
1,1314995972,4330,354,198.4763946533203000,60.6253089904785160,13.1898498535156250,34.5878906250000000,36.8848915100097660,39.7928199768066400,2.9079279899597170,698.5125732421875000,732.7462158203125000,222.8397979736328000,18590
1,1314999572,4330,354,197.2481994628906200,60.2522583007812500,13.1913995742797850,34.6620597839355500,36.9571418762207000,39.8691596984863300,2.9120180606842040,700.3101196289062000,732.7119140625000000,222.7879028320312500,54593
1,1315003172,4330,354,195.9192047119140600,59.8457489013671900,13.1910104751586910,34.7441711425781250,37.0371208190918000,39.9497184753418000,2.9125978946685790,702.1663818359375000,732.6578979492188000,222.8007965087890600,3238
1,1315006772,4330,354,194.4465026855468800,59.3942489624023440,13.1897602081298830,34.8363685607910160,37.1269302368164060,40.0409698486328100,2.9140400886535645,704.4522094726562000,732.7393798828125000,222.8428039550781200,38250
1,1315010372,4330,354,198.1927947998047000,60.5412483215332000,13.1917295455932620,34.6041297912597660,36.9006996154785160,39.8078002929687500,2.9070971012115480,698.8303222656250000,732.6693725585938000,222.7767028808593800,3949
1,1315013972,4330,354,196.9503936767578000,60.1589012145996100,13.1896295547485350,34.6813392639160160,36.9759101867675800,39.8821411132812500,2.9062271118164062,700.6655883789062000,732.5983886718750000,222.8471984863281200,34991
1,1315017572,4330,354,197.9369964599609400,60.4454803466796900,13.1786804199218750,34.6265907287597660,36.9225883483886700,39.8280906677246100,2.9055020809173584,699.2935180664062000,732.7987060546875000,223.2138061523437500,32899
1,1315021172,4330,354,198.0839996337890600,60.4724617004394500,13.1654100418090820,34.6240882873535160,36.9201507568359400,39.8298187255859400,2.9096679687500000,699.2113037109375000,732.8427124023438000,223.6582946777343800,31300
1,1315024772,4330,354,200.3013000488281200,61.1567001342773440,13.1707897186279300,34.4862594604492200,36.7859001159668000,39.6968193054199200,2.9109270572662354,695.7445068359375000,732.7424926757812000,223.4781036376953000,39954
1,1315028372,4330,354,199.6595001220703000,60.9764785766601560,13.1823396682739260,34.5197982788085940,36.8185691833496100,39.7298011779785160,2.9112319946289062,696.5380249023438000,732.5728759765625000,223.0914001464843800,59914
1,1315031972,4330,354,198.1069030761718800,60.5062904357910160,13.1852998733520500,34.6128005981445300,36.9091491699218750,39.8233909606933600,2.9142460823059080,698.8759155273438000,732.6248779296875000,222.9922027587890600,39314
1,1315035572,4330,354,196.1199951171875000,59.9008903503418000,13.1863803863525390,34.7343215942382800,37.0275306701660160,39.9424095153808600,2.9148859977722170,701.8289794921875000,732.5499267578125000,222.9559936523437500,23555
1,1315039172,4330,354,195.4170074462890600,59.6859207153320300,13.1862001419067380,34.7778511047363300,37.0699195861816400,39.9781608581543000,2.9082410335540770,702.8679809570312000,732.5424194335938000,222.9620971679687500,22650
1,1315042772,4330,354,195.7236938476562500,59.7790107727050800,13.1857595443725590,34.7588806152343750,37.0514488220214840,39.9549293518066400,2.9034729003906250,702.4332275390625000,732.5853881835938000,222.9768066406250000,54552
1,1315046372,4330,354,195.5800933837890600,59.7317504882812500,13.1831998825073240,34.7691917419433600,37.0614891052246100,39.9666595458984400,2.9051671028137207,702.6519775390625000,732.5579223632812000,223.0625000000000000,34296
1,1315049972,4330,354,196.6692047119140600,60.0579109191894500,13.1783800125122070,34.7044601440429700,36.9984397888183600,39.9023590087890600,2.9039230346679688,701.0510253906250000,732.5659179687500000,223.2236938476562500,12429
1,1315053572,4330,354,198.3119964599609400,60.5594291687011700,13.1782598495483400,34.6033706665039060,36.8999710083007800,39.8037414550781250,2.9037699699401855,698.5020751953125000,732.5322265625000000,223.2279968261718800,18106
1,1315057172,4330,354,199.4673004150390600,60.9230690002441400,13.1862602233886720,34.5292015075683600,36.8277206420898440,39.7375602722168000,2.9098429679870605,696.7166748046875000,732.4257812500000000,222.9600982666015600,12044
1,1315060772,4330,354,196.8665924072265600,60.1282196044921900,13.1858596801757810,34.6885299682617200,36.9829292297363300,39.8925895690918000,2.9096679687500000,700.6292114257812000,732.4600219726562000,222.9734039306640600,52012
1,1315064372,4330,354,195.3273010253906200,59.6580314636230500,13.1858100891113280,34.7839012145996100,37.0758209228515600,39.9871406555175800,2.9113159179687500,702.8432006835938000,732.4492187500000000,222.9750976562500000,23931
1,1315067972,4330,354,196.3684997558593800,59.9757690429687500,13.1856098175048830,34.7189407348632800,37.0125389099121100,39.9264411926269500,2.9138948917388916,701.2592163085938000,732.3745117187500000,222.9819030761718800,35156
1,1315071572,4330,354,196.3204956054687500,59.9567604064941400,13.1823797225952150,34.7235794067382800,37.0170593261718750,39.9299011230468750,2.9128420352935790,701.3626098632812000,732.4160156250000000,223.0899963378906200,26763
1,1315075172,4330,354,196.5812072753906200,60.0265808105468750,13.1750602722167970,34.7115592956543000,37.0053596496582000,39.9177703857421900,2.9124150276184080,701.0178222656250000,732.4807739257812000,223.3350982666015600,51950
1,1315078772,4330,354,196.6822967529297000,60.0528297424316400,13.1716098785400390,34.7066307067871100,37.0005493164062500,39.9113311767578100,2.9107820987701416,700.9188842773438000,732.5347900390625000,223.4506988525390600,7725
1,1315082372,4330,354,199.3244934082031200,60.8682899475097660,13.1780004501342770,34.5418205261230500,36.8400115966796900,39.7478790283203100,2.9078669548034670,696.8397827148438000,732.3917846679688000,223.2364959716797000,17017
1,1315085972,4330,354,198.7924957275390600,60.7173614501953100,13.1865301132202150,34.5704307556152340,36.8678817749023440,39.7797889709472660,2.9119029045104980,697.4956054687500000,732.2885742187500000,222.9508972167968800,38899
1,1315089572,4330,354,196.9759063720703000,60.1652717590332000,13.1885595321655270,34.6801490783691400,36.9747505187988300,39.8778495788574200,2.9030990600585938,700.2263183593750000,732.2849731445312000,222.8829040527343800,43456
1,1315093172,4330,354,196.4609985351562500,60.0050010681152340,13.1863298416137700,34.7133598327636700,37.0070991516113300,39.9126396179199200,2.9055399894714355,701.0947875976562000,732.3375244140625000,222.9577941894531200,8385
1,1315096772,4330,354,195.9279937744140600,59.8353996276855500,13.1812496185302730,34.7486114501953100,37.0414390563964840,39.9523887634277340,2.9109499454498290,701.8649291992188000,732.2675781250000000,223.1275939941406200,14191
1,1315100372,4330,354,198.9414062500000000,60.7584495544433600,13.1833000183105470,34.5626716613769500,36.8603210449218750,39.7719688415527340,2.9116520881652830,697.2772216796875000,732.3862304687500000,223.0590972900390600,35028
1,1315103972,4330,354,196.8423004150390600,60.1177291870117200,13.1835699081420900,34.6909599304199200,36.9852790832519500,39.8979606628418000,2.9126820564270020,700.2971191406250000,732.2493896484375000,223.0500030517578000,38548
1,1315107572,4330,354,196.5928039550781200,60.0374603271484400,13.1805000305175780,34.7081298828125000,37.0020103454589840,39.9059906005859400,2.9039759635925293,700.9420166015625000,732.3037109375000000,223.1528930664062500,45505
1,1315111172,4330,354,197.6479034423828000,60.3403816223144500,13.1661996841430660,34.6504783630371100,36.9458503723144500,39.8542785644531250,2.9084239006042480,699.4083862304688000,732.2744750976562000,223.6318969726562500,47792
1,1315114772,4330,354,198.5641021728515600,60.6164093017578100,13.1634702682495120,34.5959281921386700,36.8927192687988300,39.8034515380859400,2.9107279777526855,698.1212768554688000,732.3132934570312000,223.7232055664062500,50648
1,1315118372,4330,354,198.4942932128906200,60.6029510498046900,13.1692800521850590,34.5967102050781250,36.8934898376464840,39.7975616455078100,2.9040760993957520,698.0046997070312000,732.2454223632812000,223.5287017822265600,45273
1,1315121972,4330,354,196.5668029785156200,60.0175895690918000,13.1716003417968750,34.7143096923828100,37.0080299377441400,39.9108390808105500,2.9028089046478270,700.9412231445312000,732.2357788085938000,223.4508972167968800,27371
1,1315125572,4330,354,196.0373992919922000,59.8568305969238300,13.1722602844238280,34.7463607788085940,37.0392494201660160,39.9488105773925800,2.9095540046691895,701.7329711914062000,732.2224121093750000,223.4288940429687500,38711
1,1315129172,4330,354,198.5480041503906200,60.6286201477050800,13.1761302947998050,34.5905494689941400,36.8874816894531250,39.8001899719238300,2.9127039909362793,697.8809814453125000,732.1878051757812000,223.2993011474609400,50459
1,1315132772,4330,354,198.3668060302734400,60.5838699340820300,13.1839504241943360,34.5976104736328100,36.8943595886230500,39.8001594543457000,2.9058001041412354,698.0178833007812000,732.1011962890625000,223.0372924804687500,6166
1,1315136372,4330,354,196.6157073974609400,60.0505409240722660,13.1850595474243160,34.7042617797851560,36.9982490539550800,39.9081001281738300,2.9098510742187500,700.5543212890625000,732.0811157226562000,223.0003051757812500,29305
1,1315139972,4330,354,197.8034973144531200,60.4159088134765600,13.1869897842407230,34.6301498413085940,36.9260482788085940,39.8374900817871100,2.9114460945129395,698.6478881835938000,732.0296020507812000,222.9355010986328000,44975
1,1315143572,4330,354,194.1867980957031200,59.3117790222168000,13.1873903274536130,34.8537483215332000,37.1438598632812500,40.0560188293457000,2.9121549129486084,704.1099853515625000,731.9901123046875000,222.9223022460937500,46651
1,1315147172,4330,354,195.5576934814453000,59.7309684753418000,13.1877498626708980,34.7686080932617200,37.0609283447265600,39.9737701416015600,2.9128420352935790,702.0366210937500000,731.9365234375000000,222.9100036621093800,51783
1,1315150772,4330,354,194.9111938476562500,59.5289192199707000,13.1843004226684570,34.8103904724121100,37.1016197204589840,40.0062103271484400,2.9045870304107666,703.1107177734375000,731.9876708984375000,223.0258026123047000,42581
1,1315154372,4330,354,194.5102996826172000,59.4038085937500000,13.1822700500488280,34.8365898132324200,37.1271400451660160,40.0314483642578100,2.9043049812316895,703.6459960937500000,731.9511718750000000,223.0935058593750000,50661
1,1315157972,4330,354,196.1255950927734400,59.8966407775878900,13.1819295883178710,34.7359580993652340,37.0291213989257800,39.9317893981933600,2.9026720523834230,701.2974243164062000,732.0006713867188000,223.1051025390625000,56255
1,1315161572,4330,354,197.5572052001953000,60.3223609924316400,13.1733798980712890,34.6523017883300800,36.9476318359375000,39.8565101623535160,2.9088749885559080,699.1735839843750000,731.9935913085938000,223.3914031982422000,62951
1,1315165172,4330,354,197.9936981201172000,60.4390296936035160,13.1610698699951170,34.6315002441406250,36.9273681640625000,39.8358917236328100,2.9085240364074707,698.6729125976562000,732.0742797851562000,223.8036956787109400,8671
1,1315168772,4330,354,198.3448028564453000,60.5464591979980500,13.1612701416015620,34.6103591918945300,36.9067802429199200,39.8087615966796900,2.9019849300384520,698.1204223632812000,732.0576782226562000,223.7969055175781200,41920
1,1315172372,4330,354,199.3309936523437500,60.8474998474121100,13.1612701416015620,34.5499496459960940,36.8479309082031250,39.7501792907714840,2.9022519588470460,696.6232910156250000,732.1027221679688000,223.7969055175781200,18433
1,1315175972,4330,354,199.2774963378906200,60.8314590454101560,13.1614799499511720,34.5530891418457000,36.8509902954101560,39.7510185241699200,2.9000320434570312,696.6309814453125000,732.0415039062500000,223.7897033691406200,4186
1,1315179572,4330,354,199.7521057128906200,61.0254898071289060,13.1975603103637700,34.5060691833496100,36.8051795959472660,39.7080192565918000,2.9028398990631104,695.6156005859375000,731.7913818359375000,222.5814971923828000,59953
1,1315183172,4330,354,199.0164031982422000,60.8185005187988300,13.2106895446777340,34.5441284179687500,36.8422584533691400,39.7450294494628900,2.9027628898620605,696.7078857421875000,731.8001708984375000,222.1419067382812500,20713
1,1315186772,4330,354,197.6327056884765600,60.3994293212890600,13.2134895324707030,34.6277809143066400,36.9237403869628900,39.8328399658203100,2.9090960025787354,698.5463867187500000,731.8178100585938000,222.0480957031250000,64390
1,1315190372,4330,354,197.7581024169922000,60.4291801452636700,13.2071304321289060,34.6231307983398440,36.9192085266113300,39.8205413818359400,2.9013290405273438,698.5161743164062000,731.8162841796875000,222.2611999511718800,8379